Time,TemperatureF,DewpointF,PressureIn,WindDirection,WindDirectionDegrees,WindSpeedMPH,WindSpeedGustMPH,Humidity,HourlyPrecipIn,Conditions,Clouds,dailyrainin,SoftwareType,DateUTC
2013-06-19 00:01:00,57.6,47.9,30.06,NE,55,2.0,2.0,70,0.00,,---,0.00,VWS V14.01,2013-06-19 04:01:00,
2013-06-19 00:06:00,57.3,48.0,30.06,NE,55,0.0,2.0,71,0.00,,---,0.00,VWS V14.01,2013-06-19 04:06:00,
2013-06-19 00:11:00,57.1,47.8,30.06,NE,55,2.0,3.0,71,0.00,,---,0.00,VWS V14.01,2013-06-19 04:11:00,
2013-06-19 00:16:00,56.8,48.2,30.06,NE,55,3.0,3.0,73,0.00,,---,0.00,VWS V14.01,2013-06-19 04:16:00,
2013-06-19 00:21:00,56.6,48.4,30.06,NE,55,1.0,3.0,74,0.00,,---,0.00,VWS V14.01,2013-06-19 04:21:00,
2013-06-19 00:26:00,56.2,48.8,30.07,NE,55,0.0,2.0,76,0.00,,---,0.00,VWS V14.01,2013-06-19 04:26:00,
2013-06-19 00:31:00,56.0,48.9,30.07,NE,55,0.0,0.0,77,0.00,,---,0.00,VWS V14.01,2013-06-19 04:31:00,
2013-06-19 00:36:00,55.8,48.0,30.07,NE,55,0.0,0.0,75,0.00,,---,0.00,VWS V14.01,2013-06-19 04:36:00,
2013-06-19 00:41:00,55.6,47.5,30.06,NE,55,3.0,4.0,74,0.00,,---,0.00,VWS V14.01,2013-06-19 04:41:00,
2013-06-19 00:46:00,55.7,47.5,30.07,NE,55,3.0,5.0,74,0.00,,---,0.00,VWS V14.01,2013-06-19 04:46:00,
2013-06-19 00:51:00,55.9,47.7,30.06,NE,55,3.0,5.0,74,0.00,,---,0.00,VWS V14.01,2013-06-19 04:51:00,
2013-06-19 00:56:00,55.8,47.7,30.07,NE,55,3.0,4.0,74,0.00,,---,0.00,VWS V14.01,2013-06-19 04:56:00,
2013-06-19 01:01:00,55.7,47.9,30.07,NE,55,4.0,4.0,75,0.00,,---,0.00,VWS V14.01,2013-06-19 05:01:00,
2013-06-19 01:06:00,55.7,47.5,30.07,ENE,74,4.0,5.0,74,0.00,,---,0.00,VWS V14.01,2013-06-19 05:06:00,
2013-06-19 01:11:00,55.6,47.8,30.07,ENE,74,3.0,5.0,75,0.00,,---,0.00,VWS V14.01,2013-06-19 05:11:00,
2013-06-19 01:16:00,55.5,47.4,30.07,ENE,74,2.0,5.0,74,0.00,,---,0.00,VWS V14.01,2013-06-19 05:16:00,
2013-06-19 01:21:00,55.5,47.7,30.07,East,84,2.0,4.0,75,0.00,,---,0.00,VWS V14.01,2013-06-19 05:21:00,
2013-06-19 01:26:00,55.3,47.5,30.07,ENE,76,3.0,6.0,75,0.00,,---,0.00,VWS V14.01,2013-06-19 05:26:00,
2013-06-19 01:31:00,55.3,47.5,30.07,ENE,70,4.0,6.0,75,0.00,,---,0.00,VWS V14.01,2013-06-19 05:31:00,
2013-06-19 01:36:00,55.3,47.5,30.07,ENE,71,3.0,5.0,75,0.00,,---,0.00,VWS V14.01,2013-06-19 05:36:00,
2013-06-19 01:41:00,55.2,47.8,30.07,ENE,72,2.0,4.0,76,0.00,,---,0.00,VWS V14.01,2013-06-19 05:41:00,
2013-06-19 01:46:00,55.1,47.7,30.08,ENE,72,2.0,4.0,76,0.00,,---,0.00,VWS V14.01,2013-06-19 05:46:00,
2013-06-19 01:51:00,55.0,47.6,30.08,ENE,71,2.0,3.0,76,0.00,,---,0.00,VWS V14.01,2013-06-19 05:51:00,
2013-06-19 01:56:00,54.8,47.4,30.08,ENE,72,0.0,0.0,76,0.00,,---,0.00,VWS V14.01,2013-06-19 05:56:00,
2013-06-19 02:01:00,54.6,47.5,30.08,ENE,72,2.0,3.0,77,0.00,,---,0.00,VWS V14.01,2013-06-19 06:01:00,
2013-06-19 02:06:00,54.4,47.3,30.08,ENE,72,3.0,4.0,77,0.00,,---,0.00,VWS V14.01,2013-06-19 06:06:00,
2013-06-19 02:11:00,54.4,47.3,30.08,ENE,72,1.0,4.0,77,0.00,,---,0.00,VWS V14.01,2013-06-19 06:11:00,
2013-06-19 02:16:00,54.2,47.5,30.08,ENE,72,2.0,3.0,78,0.00,,---,0.00,VWS V14.01,2013-06-19 06:16:00,
2013-06-19 02:21:00,54.0,47.6,30.08,ENE,72,0.0,0.0,79,0.00,,---,0.00,VWS V14.01,2013-06-19 06:21:00,
2013-06-19 02:26:00,53.7,47.3,30.08,ENE,71,0.0,2.0,79,0.00,,---,0.00,VWS V14.01,2013-06-19 06:26:00,
2013-06-19 02:31:00,53.5,47.5,30.08,ENE,72,0.0,0.0,80,0.00,,---,0.00,VWS V14.01,2013-06-19 06:31:00,
2013-06-19 02:36:00,53.3,47.3,30.08,ENE,71,0.0,0.0,80,0.00,,---,0.00,VWS V14.01,2013-06-19 06:36:00,
2013-06-19 02:41:00,53.2,46.9,30.09,ENE,71,0.0,0.0,79,0.00,,---,0.00,VWS V14.01,2013-06-19 06:41:00,
2013-06-19 02:46:00,53.2,47.2,30.09,ENE,72,0.0,0.0,80,0.00,,---,0.00,VWS V14.01,2013-06-19 06:46:00,
2013-06-19 02:51:00,53.1,47.1,30.09,ENE,71,0.0,0.0,80,0.00,,---,0.00,VWS V14.01,2013-06-19 06:51:00,
2013-06-19 02:56:00,53.0,46.7,30.09,ENE,72,0.0,0.0,79,0.00,,---,0.00,VWS V14.01,2013-06-19 06:56:00,
2013-06-19 03:01:00,53.0,46.7,30.09,ENE,72,0.0,0.0,79,0.00,,---,0.00,VWS V14.01,2013-06-19 07:01:00,
2013-06-19 03:06:00,53.0,46.7,30.08,ENE,71,0.0,2.0,79,0.00,,---,0.00,VWS V14.01,2013-06-19 07:06:00,
2013-06-19 03:11:00,53.1,46.4,30.09,ENE,71,0.0,0.0,78,0.00,,---,0.00,VWS V14.01,2013-06-19 07:11:00,
2013-06-19 03:16:00,53.0,46.7,30.09,ENE,71,0.0,0.0,79,0.00,,---,0.00,VWS V14.01,2013-06-19 07:16:00,
2013-06-19 03:21:00,52.9,46.6,30.09,ENE,72,0.0,0.0,79,0.00,,---,0.00,VWS V14.01,2013-06-19 07:21:00,
2013-06-19 03:26:00,52.8,46.5,30.09,ENE,71,0.0,0.0,79,0.00,,---,0.00,VWS V14.01,2013-06-19 07:26:00,
2013-06-19 03:31:00,52.7,47.0,30.09,ENE,71,0.0,0.0,81,0.00,,---,0.00,VWS V14.01,2013-06-19 07:31:00,
2013-06-19 03:36:00,52.5,46.8,30.09,ENE,72,0.0,0.0,81,0.00,,---,0.00,VWS V14.01,2013-06-19 07:36:00,
2013-06-19 03:41:00,52.4,47.1,30.09,ENE,71,0.0,0.0,82,0.00,,---,0.00,VWS V14.01,2013-06-19 07:41:00,
2013-06-19 03:46:00,52.2,46.9,30.09,ENE,71,0.0,0.0,82,0.00,,---,0.00,VWS V14.01,2013-06-19 07:46:00,
2013-06-19 03:51:00,52.0,46.0,30.10,ENE,72,0.0,0.0,80,0.00,,---,0.00,VWS V14.01,2013-06-19 07:51:00,
2013-06-19 03:56:00,52.0,45.7,30.09,ENE,71,0.0,0.0,79,0.00,,---,0.00,VWS V14.01,2013-06-19 07:56:00,
2013-06-19 04:01:00,52.1,45.8,30.10,ENE,72,0.0,0.0,79,0.00,,---,0.00,VWS V14.01,2013-06-19 08:01:00,
2013-06-19 04:06:00,52.0,46.4,30.10,ENE,71,0.0,0.0,81,0.00,,---,0.00,VWS V14.01,2013-06-19 08:06:00,
2013-06-19 04:11:00,51.9,46.3,30.10,ENE,72,0.0,1.0,81,0.00,,---,0.00,VWS V14.01,2013-06-19 08:11:00,
2013-06-19 04:16:00,51.7,46.7,30.10,ENE,71,0.0,0.0,83,0.00,,---,0.00,VWS V14.01,2013-06-19 08:16:00,
2013-06-19 04:21:00,51.4,46.4,30.10,ENE,71,0.0,0.0,83,0.00,,---,0.00,VWS V14.01,2013-06-19 08:21:00,
2013-06-19 04:26:00,51.1,46.1,30.10,ENE,72,0.0,0.0,83,0.00,,---,0.00,VWS V14.01,2013-06-19 08:26:00,
2013-06-19 04:31:00,50.8,46.2,30.10,ENE,71,0.0,0.0,84,0.00,,---,0.00,VWS V14.01,2013-06-19 08:31:00,
2013-06-19 04:36:00,50.5,45.8,30.10,ENE,72,0.0,0.0,84,0.00,,---,0.00,VWS V14.01,2013-06-19 08:36:00,
2013-06-19 04:41:00,50.4,46.1,30.11,ENE,72,0.0,0.0,85,0.00,,---,0.00,VWS V14.01,2013-06-19 08:41:00,
2013-06-19 04:46:00,50.1,45.8,30.11,ENE,72,0.0,0.0,85,0.00,,---,0.00,VWS V14.01,2013-06-19 08:46:00,
2013-06-19 04:51:00,50.0,45.7,30.11,ENE,71,0.0,0.0,85,0.00,,---,0.00,VWS V14.01,2013-06-19 08:51:00,
2013-06-19 04:56:00,49.8,45.5,30.11,ENE,72,0.0,0.0,85,0.00,,---,0.00,VWS V14.01,2013-06-19 08:56:00,
2013-06-19 05:01:00,49.8,45.5,30.11,ENE,71,0.0,0.0,85,0.00,,---,0.00,VWS V14.01,2013-06-19 09:01:00,
2013-06-19 05:06:00,49.7,45.4,30.12,ENE,72,0.0,0.0,85,0.00,,---,0.00,VWS V14.01,2013-06-19 09:06:00,
2013-06-19 05:11:00,49.6,45.3,30.12,ENE,71,0.0,0.0,85,0.00,,---,0.00,VWS V14.01,2013-06-19 09:11:00,
2013-06-19 05:16:00,49.5,45.2,30.12,ENE,71,0.0,0.0,85,0.00,,---,0.00,VWS V14.01,2013-06-19 09:16:00,
2013-06-19 05:21:00,49.4,45.1,30.12,ENE,72,0.0,0.0,85,0.00,,---,0.00,VWS V14.01,2013-06-19 09:21:00,
2013-06-19 05:26:00,49.4,45.4,30.12,ENE,71,1.0,2.0,86,0.00,,---,0.00,VWS V14.01,2013-06-19 09:26:00,
2013-06-19 05:31:00,49.2,45.2,30.12,ENE,72,0.0,2.0,86,0.00,,---,0.00,VWS V14.01,2013-06-19 09:31:00,
2013-06-19 05:36:00,49.0,45.3,30.13,ENE,72,0.0,0.0,87,0.00,,---,0.00,VWS V14.01,2013-06-19 09:36:00,
2013-06-19 05:41:00,48.8,45.1,30.13,ENE,72,0.0,0.0,87,0.00,,---,0.00,VWS V14.01,2013-06-19 09:41:00,
2013-06-19 05:46:00,48.6,44.9,30.13,ENE,71,0.0,0.0,87,0.00,,---,0.00,VWS V14.01,2013-06-19 09:46:00,
2013-06-19 05:51:00,48.5,44.8,30.13,ENE,71,0.0,0.0,87,0.00,,---,0.00,VWS V14.01,2013-06-19 09:51:00,
2013-06-19 05:56:00,48.5,44.8,30.14,ENE,72,1.0,2.0,87,0.00,,---,0.00,VWS V14.01,2013-06-19 09:56:00,
2013-06-19 06:01:00,48.4,44.7,30.14,ENE,72,1.0,2.0,87,0.00,,---,0.00,VWS V14.01,2013-06-19 10:01:00,
2013-06-19 06:06:00,48.3,44.6,30.13,ENE,72,0.0,1.0,87,0.00,,---,0.00,VWS V14.01,2013-06-19 10:06:00,
2013-06-19 06:11:00,48.2,44.8,30.14,ENE,71,0.0,0.0,88,0.00,,---,0.00,VWS V14.01,2013-06-19 10:11:00,
2013-06-19 06:16:00,48.2,44.8,30.13,ENE,72,0.0,0.0,88,0.00,,---,0.00,VWS V14.01,2013-06-19 10:16:00,
2013-06-19 06:21:00,48.2,44.8,30.14,ENE,72,0.0,0.0,88,0.00,,---,0.00,VWS V14.01,2013-06-19 10:21:00,
2013-06-19 06:26:00,48.2,44.8,30.14,ENE,72,0.0,0.0,88,0.00,,---,0.00,VWS V14.01,2013-06-19 10:26:00,
2013-06-19 06:31:00,48.2,45.1,30.14,ENE,72,0.0,0.0,89,0.00,,---,0.00,VWS V14.01,2013-06-19 10:31:00,
2013-06-19 06:36:00,48.3,45.2,30.14,ENE,72,0.0,0.0,89,0.00,,---,0.00,VWS V14.01,2013-06-19 10:36:00,
2013-06-19 06:41:00,48.4,45.3,30.14,ENE,71,0.0,0.0,89,0.00,,---,0.00,VWS V14.01,2013-06-19 10:41:00,
2013-06-19 06:46:00,48.7,45.9,30.14,ENE,72,0.0,0.0,90,0.00,,---,0.00,VWS V14.01,2013-06-19 10:46:00,
2013-06-19 06:51:00,48.9,46.1,30.14,ENE,72,0.0,0.0,90,0.00,,---,0.00,VWS V14.01,2013-06-19 10:51:00,
2013-06-19 06:56:00,49.2,46.1,30.14,ENE,72,0.0,0.0,89,0.00,,---,0.00,VWS V14.01,2013-06-19 10:56:00,
2013-06-19 07:01:00,49.5,46.1,30.14,ENE,72,0.0,0.0,88,0.00,,---,0.00,VWS V14.01,2013-06-19 11:01:00,
2013-06-19 07:06:00,50.0,46.6,30.14,ENE,63,0.0,2.0,88,0.00,,---,0.00,VWS V14.01,2013-06-19 11:06:00,
2013-06-19 07:11:00,50.4,46.4,30.14,ENE,63,2.0,3.0,86,0.00,,---,0.00,VWS V14.01,2013-06-19 11:11:00,
2013-06-19 07:16:00,50.8,46.5,30.14,ENE,62,1.0,3.0,85,0.00,,---,0.00,VWS V14.01,2013-06-19 11:16:00,
2013-06-19 07:21:00,51.1,46.8,30.14,ENE,63,1.0,2.0,85,0.00,,---,0.00,VWS V14.01,2013-06-19 11:21:00,
2013-06-19 07:26:00,51.4,46.7,30.14,NE,56,1.0,3.0,84,0.00,,---,0.00,VWS V14.01,2013-06-19 11:26:00,
2013-06-19 07:31:00,51.8,47.1,30.14,NE,56,3.0,4.0,84,0.00,,---,0.00,VWS V14.01,2013-06-19 11:31:00,
2013-06-19 07:36:00,52.2,47.2,30.14,ENE,71,3.0,4.0,83,0.00,,---,0.00,VWS V14.01,2013-06-19 11:36:00,
2013-06-19 07:41:00,52.6,46.9,30.14,ENE,71,2.0,3.0,81,0.00,,---,0.00,VWS V14.01,2013-06-19 11:41:00,
2013-06-19 07:46:00,53.1,47.1,30.14,ENE,78,1.0,3.0,80,0.00,,---,0.00,VWS V14.01,2013-06-19 11:46:00,
2013-06-19 07:51:00,53.6,46.6,30.15,East,80,1.0,4.0,77,0.00,,---,0.00,VWS V14.01,2013-06-19 11:51:00,
2013-06-19 07:56:00,54.1,46.0,30.15,ENE,76,2.0,6.0,74,0.00,,---,0.00,VWS V14.01,2013-06-19 11:56:00,
2013-06-19 08:01:00,54.4,45.6,30.15,East,80,3.0,6.0,72,0.00,,---,0.00,VWS V14.01,2013-06-19 12:01:00,
2013-06-19 08:06:00,54.7,45.9,30.15,ENE,74,6.0,6.0,72,0.00,,---,0.00,VWS V14.01,2013-06-19 12:06:00,
2013-06-19 08:11:00,55.1,45.9,30.16,East,83,3.0,6.0,71,0.00,,---,0.00,VWS V14.01,2013-06-19 12:11:00,
2013-06-19 08:16:00,55.6,46.0,30.16,ENE,77,2.0,5.0,70,0.00,,---,0.00,VWS V14.01,2013-06-19 12:16:00,
2013-06-19 08:21:00,56.1,46.5,30.15,ESE,102,5.0,6.0,70,0.00,,---,0.00,VWS V14.01,2013-06-19 12:21:00,
2013-06-19 08:26:00,56.6,46.2,30.16,ESE,103,8.0,9.0,68,0.00,,---,0.00,VWS V14.01,2013-06-19 12:26:00,
2013-06-19 08:31:00,57.0,45.4,30.16,East,91,6.0,9.0,65,0.00,,---,0.00,VWS V14.01,2013-06-19 12:31:00,
2013-06-19 08:36:00,57.3,45.7,30.16,East,96,7.0,12.0,65,0.00,,---,0.00,VWS V14.01,2013-06-19 12:36:00,
2013-06-19 08:41:00,57.4,45.8,30.16,ENE,74,6.0,9.0,65,0.00,,---,0.00,VWS V14.01,2013-06-19 12:41:00,
2013-06-19 08:46:00,57.7,46.4,30.16,East,89,4.0,6.0,66,0.00,,---,0.00,VWS V14.01,2013-06-19 12:46:00,
2013-06-19 08:51:00,58.0,45.5,30.16,East,94,5.0,11.0,63,0.00,,---,0.00,VWS V14.01,2013-06-19 12:51:00,
2013-06-19 08:56:00,57.9,45.8,30.16,ESE,102,6.0,12.0,64,0.00,,---,0.00,VWS V14.01,2013-06-19 12:56:00,
2013-06-19 09:01:00,58.1,46.0,30.16,East,82,6.0,9.0,64,0.00,,---,0.00,VWS V14.01,2013-06-19 13:01:00,
2013-06-19 09:06:00,58.4,46.3,30.16,ESE,102,6.0,8.0,64,0.00,,---,0.00,VWS V14.01,2013-06-19 13:06:00,
2013-06-19 09:11:00,58.7,46.6,30.16,ESE,103,5.0,8.0,64,0.00,,---,0.00,VWS V14.01,2013-06-19 13:11:00,
2013-06-19 09:16:00,58.9,46.8,30.16,East,90,5.0,9.0,64,0.00,,---,0.00,VWS V14.01,2013-06-19 13:16:00,
2013-06-19 09:21:00,59.3,47.5,30.16,East,101,8.0,8.0,65,0.00,,---,0.00,VWS V14.01,2013-06-19 13:21:00,
2013-06-19 09:26:00,59.8,48.8,30.17,ESE,120,5.0,6.0,67,0.00,,---,0.00,VWS V14.01,2013-06-19 13:26:00,
2013-06-19 09:31:00,60.4,48.2,30.16,East,96,7.0,7.0,64,0.00,,---,0.00,VWS V14.01,2013-06-19 13:31:00,
2013-06-19 09:36:00,60.7,48.5,30.16,East,100,5.0,7.0,64,0.00,,---,0.00,VWS V14.01,2013-06-19 13:36:00,
2013-06-19 09:41:00,60.9,48.2,30.16,East,88,5.0,8.0,63,0.00,,---,0.00,VWS V14.01,2013-06-19 13:41:00,
2013-06-19 09:46:00,61.1,48.0,30.16,ESE,102,6.0,7.0,62,0.00,,---,0.00,VWS V14.01,2013-06-19 13:46:00,
2013-06-19 09:51:00,61.2,48.5,30.16,East,91,2.0,6.0,63,0.00,,---,0.00,VWS V14.01,2013-06-19 13:51:00,
2013-06-19 09:56:00,61.6,48.5,30.16,ESE,105,4.0,7.0,62,0.00,,---,0.00,VWS V14.01,2013-06-19 13:56:00,
2013-06-19 10:01:00,62.0,50.1,30.16,ESE,121,5.0,8.0,65,0.00,,---,0.00,VWS V14.01,2013-06-19 14:01:00,
2013-06-19 10:06:00,62.5,48.4,30.16,East,98,6.0,7.0,60,0.00,,---,0.00,VWS V14.01,2013-06-19 14:06:00,
2013-06-19 10:11:00,62.6,48.5,30.16,East,87,2.0,7.0,60,0.00,,---,0.00,VWS V14.01,2013-06-19 14:11:00,
2013-06-19 10:16:00,62.8,48.7,30.16,ENE,78,2.0,6.0,60,0.00,,---,0.00,VWS V14.01,2013-06-19 14:16:00,
2013-06-19 10:21:00,63.2,50.8,30.16,ENE,78,0.0,3.0,64,0.00,,---,0.00,VWS V14.01,2013-06-19 14:21:00,
2013-06-19 10:26:00,63.7,50.0,30.16,East,94,2.0,5.0,61,0.00,,---,0.00,VWS V14.01,2013-06-19 14:26:00,
2013-06-19 10:31:00,63.9,50.2,30.16,SE,130,8.0,8.0,61,0.00,,---,0.00,VWS V14.01,2013-06-19 14:31:00,
2013-06-19 10:36:00,64.3,49.7,30.16,ESE,122,6.0,9.0,59,0.00,,---,0.00,VWS V14.01,2013-06-19 14:36:00,
2013-06-19 10:41:00,64.7,48.7,30.15,ESE,115,7.0,9.0,56,0.00,,---,0.00,VWS V14.01,2013-06-19 14:41:00,
2013-06-19 10:46:00,65.0,48.5,30.16,SE,130,5.0,7.0,55,0.00,,---,0.00,VWS V14.01,2013-06-19 14:46:00,
2013-06-19 10:51:00,65.2,49.1,30.15,ENE,68,2.0,6.0,56,0.00,,---,0.00,VWS V14.01,2013-06-19 14:51:00,
2013-06-19 10:56:00,65.5,48.9,30.15,ESE,111,5.0,7.0,55,0.00,,---,0.00,VWS V14.01,2013-06-19 14:56:00,
2013-06-19 11:01:00,65.8,49.2,30.15,ESE,119,2.0,8.0,55,0.00,,---,0.00,VWS V14.01,2013-06-19 15:01:00,
2013-06-19 11:07:00,66.2,50.5,30.15,ENE,76,6.0,8.0,57,0.00,,---,0.00,VWS V14.01,2013-06-19 15:07:00,
2013-06-19 11:12:00,66.5,50.3,30.14,ESE,104,1.0,6.0,56,0.00,,---,0.00,VWS V14.01,2013-06-19 15:12:00,
2013-06-19 11:17:00,66.6,49.5,30.15,East,99,9.0,12.0,54,0.00,,---,0.00,VWS V14.01,2013-06-19 15:17:00,
2013-06-19 11:22:00,66.4,49.8,30.14,SSE,157,4.0,7.0,55,0.00,,---,0.00,VWS V14.01,2013-06-19 15:22:00,
2013-06-19 11:27:00,66.7,51.0,30.14,ENE,68,7.0,7.0,57,0.00,,---,0.00,VWS V14.01,2013-06-19 15:27:00,
2013-06-19 11:32:00,66.8,48.1,30.14,ENE,78,3.0,9.0,51,0.00,,---,0.00,VWS V14.01,2013-06-19 15:32:00,
2013-06-19 11:37:00,66.7,49.0,30.15,NE,34,7.0,8.0,53,0.00,,---,0.00,VWS V14.01,2013-06-19 15:37:00,
2013-06-19 11:42:00,67.0,48.8,30.15,East,86,3.0,7.0,52,0.00,,---,0.00,VWS V14.01,2013-06-19 15:42:00,
2013-06-19 11:47:00,67.0,48.8,30.14,ENE,74,4.0,5.0,52,0.00,,---,0.00,VWS V14.01,2013-06-19 15:47:00,
2013-06-19 11:52:00,67.2,47.4,30.14,East,90,5.0,10.0,49,0.00,,---,0.00,VWS V14.01,2013-06-19 15:52:00,
2013-06-19 11:57:00,67.3,49.1,30.14,East,96,7.0,8.0,52,0.00,,---,0.00,VWS V14.01,2013-06-19 15:57:00,
2013-06-19 12:02:00,67.7,47.3,30.14,East,98,1.0,7.0,48,0.00,,---,0.00,VWS V14.01,2013-06-19 16:02:00,
2013-06-19 12:07:00,68.1,49.3,30.14,NNE,32,0.0,5.0,51,0.00,,---,0.00,VWS V14.01,2013-06-19 16:07:00,
2013-06-19 12:12:00,68.5,47.5,30.15,SE,135,6.0,8.0,47,0.00,,---,0.00,VWS V14.01,2013-06-19 16:12:00,
2013-06-19 12:16:00,68.8,46.6,30.15,SE,144,0.0,11.0,45,0.00,,---,0.00,VWS V14.01,2013-06-19 16:16:00,
2013-06-19 12:21:00,68.9,45.5,30.15,SSE,156,4.0,9.0,43,0.00,,---,0.00,VWS V14.01,2013-06-19 16:21:00,
2013-06-19 12:26:00,69.3,47.1,30.15,SSE,153,0.0,2.0,45,0.00,,---,0.00,VWS V14.01,2013-06-19 16:26:00,
2013-06-19 12:31:00,69.7,48.6,30.15,SE,140,5.0,8.0,47,0.00,,---,0.00,VWS V14.01,2013-06-19 16:31:00,
2013-06-19 12:36:00,69.8,46.9,30.15,SSE,148,1.0,5.0,44,0.00,,---,0.00,VWS V14.01,2013-06-19 16:36:00,
2013-06-19 12:41:00,70.2,50.2,30.15,SSE,165,0.0,5.0,49,0.00,,---,0.00,VWS V14.01,2013-06-19 16:41:00,
2013-06-19 12:46:00,70.3,48.6,30.15,ESE,113,2.0,8.0,46,0.00,,---,0.00,VWS V14.01,2013-06-19 16:46:00,
2013-06-19 12:51:00,69.9,48.8,30.15,ENE,71,0.0,5.0,47,0.00,,---,0.00,VWS V14.01,2013-06-19 16:51:00,
2013-06-19 12:56:00,69.9,47.6,30.15,East,91,2.0,5.0,45,0.00,,---,0.00,VWS V14.01,2013-06-19 16:56:00,
2013-06-19 13:01:00,70.2,49.0,30.15,SSE,150,0.0,5.0,47,0.00,,---,0.00,VWS V14.01,2013-06-19 17:01:00,
2013-06-19 13:07:00,70.5,49.9,30.15,ESE,102,7.0,8.0,48,0.00,,---,0.00,VWS V14.01,2013-06-19 17:07:00,
2013-06-19 13:12:00,70.6,47.7,30.15,East,86,2.0,8.0,44,0.00,,---,0.00,VWS V14.01,2013-06-19 17:12:00,
2013-06-19 13:17:00,70.7,50.1,30.14,ENE,72,5.0,8.0,48,0.00,,---,0.00,VWS V14.01,2013-06-19 17:17:00,
2013-06-19 13:22:00,70.7,50.1,30.14,NE,54,6.0,8.0,48,0.00,,---,0.00,VWS V14.01,2013-06-19 17:22:00,
2013-06-19 13:27:00,70.4,48.1,30.14,East,84,0.0,7.0,45,0.00,,---,0.00,VWS V14.01,2013-06-19 17:27:00,
2013-06-19 13:32:00,70.4,49.2,30.14,NNE,32,3.0,8.0,47,0.00,,---,0.00,VWS V14.01,2013-06-19 17:32:00,
2013-06-19 13:37:00,70.5,48.2,30.14,North,10,5.0,8.0,45,0.00,,---,0.00,VWS V14.01,2013-06-19 17:37:00,
2013-06-19 13:42:00,70.7,48.3,30.14,East,80,4.0,5.0,45,0.00,,---,0.00,VWS V14.01,2013-06-19 17:42:00,
2013-06-19 13:47:00,70.7,48.9,30.14,East,84,5.0,8.0,46,0.00,,---,0.00,VWS V14.01,2013-06-19 17:47:00,
2013-06-19 13:52:00,70.7,48.9,30.13,East,80,5.0,8.0,46,0.00,,---,0.00,VWS V14.01,2013-06-19 17:52:00,
2013-06-19 13:56:00,70.8,47.8,30.13,NE,38,5.0,9.0,44,0.00,,---,0.00,VWS V14.01,2013-06-19 17:56:00,
2013-06-19 14:01:00,70.8,48.4,30.13,NNE,24,1.0,6.0,45,0.00,,---,0.00,VWS V14.01,2013-06-19 18:01:00,
2013-06-19 14:07:00,71.0,49.2,30.13,NNE,26,0.0,6.0,46,0.00,,---,0.00,VWS V14.01,2013-06-19 18:07:00,
2013-06-19 14:12:00,71.5,47.8,30.12,South,186,0.0,5.0,43,0.00,,---,0.00,VWS V14.01,2013-06-19 18:12:00,
2013-06-19 14:17:00,72.1,49.0,30.11,SE,140,2.0,11.0,44,0.00,,---,0.00,VWS V14.01,2013-06-19 18:17:00,
2013-06-19 14:22:00,72.3,50.4,30.11,SE,130,7.0,12.0,46,0.00,,---,0.00,VWS V14.01,2013-06-19 18:22:00,
2013-06-19 14:27:00,72.2,48.5,30.11,SE,135,4.0,9.0,43,0.00,,---,0.00,VWS V14.01,2013-06-19 18:27:00,
2013-06-19 14:32:00,72.4,48.0,30.11,SSE,160,4.0,8.0,42,0.00,,---,0.00,VWS V14.01,2013-06-19 18:32:00,
2013-06-19 14:36:00,72.6,48.2,30.11,SE,127,12.0,12.0,42,0.00,,---,0.00,VWS V14.01,2013-06-19 18:36:00,
2013-06-19 14:41:00,72.5,47.5,30.11,SE,128,2.0,8.0,41,0.00,,---,0.00,VWS V14.01,2013-06-19 18:41:00,
2013-06-19 14:46:00,72.5,48.1,30.12,ESE,111,9.0,9.0,42,0.00,,---,0.00,VWS V14.01,2013-06-19 18:46:00,
2013-06-19 14:52:00,72.6,48.2,30.11,East,100,6.0,7.0,42,0.00,,---,0.00,VWS V14.01,2013-06-19 18:52:00,
2013-06-19 14:57:00,72.8,48.4,30.11,SE,136,0.0,11.0,42,0.00,,---,0.00,VWS V14.01,2013-06-19 18:57:00,
2013-06-19 15:02:00,73.0,51.6,30.11,ENE,76,0.0,7.0,47,0.00,,---,0.00,VWS V14.01,2013-06-19 19:02:00,
2013-06-19 15:07:00,73.2,46.8,30.11,East,88,1.0,6.0,39,0.00,,---,0.00,VWS V14.01,2013-06-19 19:07:00,
2013-06-19 15:12:00,73.4,49.6,30.11,SSE,148,5.0,9.0,43,0.00,,---,0.00,VWS V14.01,2013-06-19 19:12:00,
2013-06-19 15:17:00,73.3,46.9,30.11,SE,132,2.0,7.0,39,0.00,,---,0.00,VWS V14.01,2013-06-19 19:17:00,
2013-06-19 15:22:00,73.5,51.5,30.11,South,180,6.0,9.0,46,0.00,,---,0.00,VWS V14.01,2013-06-19 19:22:00,
2013-06-19 15:27:00,73.7,49.8,30.10,SSW,192,0.0,4.0,43,0.00,,---,0.00,VWS V14.01,2013-06-19 19:27:00,
2013-06-19 15:32:00,73.9,50.6,30.10,SE,136,1.0,8.0,44,0.00,,---,0.00,VWS V14.01,2013-06-19 19:32:00,
2013-06-19 15:37:00,74.0,50.1,30.10,SE,128,4.0,7.0,43,0.00,,---,0.00,VWS V14.01,2013-06-19 19:37:00,
2013-06-19 15:42:00,74.3,49.1,30.10,SW,234,5.0,10.0,41,0.00,,---,0.00,VWS V14.01,2013-06-19 19:42:00,
2013-06-19 15:47:00,74.4,47.2,30.10,SW,228,2.0,6.0,38,0.00,,---,0.00,VWS V14.01,2013-06-19 19:47:00,
2013-06-19 15:52:00,74.3,47.1,30.11,ESE,114,4.0,9.0,38,0.00,,---,0.00,VWS V14.01,2013-06-19 19:52:00,
2013-06-19 15:57:00,73.8,48.7,30.11,ENE,65,0.0,6.0,41,0.00,,---,0.00,VWS V14.01,2013-06-19 19:57:00,
2013-06-19 16:02:00,73.9,48.1,30.10,WSW,258,1.0,8.0,40,0.00,,---,0.00,VWS V14.01,2013-06-19 20:02:00,
2013-06-19 16:07:00,74.3,50.4,30.11,SW,219,6.0,7.0,43,0.00,,---,0.00,VWS V14.01,2013-06-19 20:07:00,
2013-06-19 16:12:00,74.7,49.5,30.10,SW,217,0.0,4.0,41,0.00,,---,0.00,VWS V14.01,2013-06-19 20:12:00,
2013-06-19 16:16:00,75.0,49.1,30.10,SSE,156,4.0,8.0,40,0.00,,---,0.00,VWS V14.01,2013-06-19 20:16:00,
2013-06-19 16:21:00,75.2,49.2,30.10,ENE,65,3.0,5.0,40,0.00,,---,0.00,VWS V14.01,2013-06-19 20:21:00,
2013-06-19 16:26:00,75.3,48.0,30.09,SE,131,4.0,6.0,38,0.00,,---,0.00,VWS V14.01,2013-06-19 20:26:00,
2013-06-19 16:31:00,75.3,48.7,30.09,ESE,113,5.0,9.0,39,0.00,,---,0.00,VWS V14.01,2013-06-19 20:31:00,
2013-06-19 16:36:00,75.4,48.0,30.09,SE,128,5.0,9.0,38,0.00,,---,0.00,VWS V14.01,2013-06-19 20:36:00,
2013-06-19 16:41:00,75.4,48.0,30.09,SE,140,2.0,8.0,38,0.00,,---,0.00,VWS V14.01,2013-06-19 20:41:00,
2013-06-19 16:46:00,75.6,49.6,30.10,SE,130,4.0,6.0,40,0.00,,---,0.00,VWS V14.01,2013-06-19 20:46:00,
2013-06-19 16:51:00,75.6,47.5,30.09,SSE,151,4.0,6.0,37,0.00,,---,0.00,VWS V14.01,2013-06-19 20:51:00,
2013-06-19 16:56:00,75.7,50.4,30.09,South,182,3.0,7.0,41,0.00,,---,0.00,VWS V14.01,2013-06-19 20:56:00,
2013-06-19 17:02:00,75.9,48.5,30.09,WSW,252,1.0,4.0,38,0.00,,---,0.00,VWS V14.01,2013-06-19 21:02:00,
2013-06-19 17:07:00,76.1,48.7,30.09,South,175,4.0,9.0,38,0.00,,---,0.00,VWS V14.01,2013-06-19 21:07:00,
2013-06-19 17:12:00,76.2,48.8,30.09,SE,133,8.0,8.0,38,0.00,,---,0.00,VWS V14.01,2013-06-19 21:12:00,
2013-06-19 17:17:00,76.0,49.3,30.09,SSE,168,5.0,8.0,39,0.00,,---,0.00,VWS V14.01,2013-06-19 21:17:00,
2013-06-19 17:22:00,76.1,52.0,30.08,SSE,157,0.0,6.0,43,0.00,,---,0.00,VWS V14.01,2013-06-19 21:22:00,
2013-06-19 17:27:00,76.3,49.5,30.08,SE,139,4.0,8.0,39,0.00,,---,0.00,VWS V14.01,2013-06-19 21:27:00,
2013-06-19 17:32:00,76.2,48.8,30.08,NE,34,0.0,4.0,38,0.00,,---,0.00,VWS V14.01,2013-06-19 21:32:00,
2013-06-19 17:37:00,76.4,49.6,30.08,SE,135,7.0,7.0,39,0.00,,---,0.00,VWS V14.01,2013-06-19 21:37:00,
2013-06-19 17:42:00,76.2,48.0,30.08,ENE,63,3.0,6.0,37,0.00,,---,0.00,VWS V14.01,2013-06-19 21:42:00,
2013-06-19 17:47:00,76.1,48.7,30.08,ENE,78,2.0,3.0,38,0.00,,---,0.00,VWS V14.01,2013-06-19 21:47:00,
2013-06-19 17:52:00,76.3,48.8,30.08,SE,130,2.0,6.0,38,0.00,,---,0.00,VWS V14.01,2013-06-19 21:52:00,
2013-06-19 17:57:00,76.4,48.2,30.08,ESE,121,11.0,12.0,37,0.00,,---,0.00,VWS V14.01,2013-06-19 21:57:00,
2013-06-19 18:02:00,76.2,50.1,30.08,South,185,3.0,7.0,40,0.00,,---,0.00,VWS V14.01,2013-06-19 22:02:00,
2013-06-19 18:07:00,76.3,50.2,30.07,South,174,1.0,7.0,40,0.00,,---,0.00,VWS V14.01,2013-06-19 22:07:00,
2013-06-19 18:12:00,76.4,50.3,30.07,South,178,0.0,2.0,40,0.00,,---,0.00,VWS V14.01,2013-06-19 22:12:00,
2013-06-19 18:17:00,76.6,50.5,30.07,ESE,107,4.0,5.0,40,0.00,,---,0.00,VWS V14.01,2013-06-19 22:17:00,
2013-06-19 18:22:00,76.5,49.0,30.07,SSE,155,0.0,6.0,38,0.00,,---,0.00,VWS V14.01,2013-06-19 22:22:00,
2013-06-19 18:27:00,76.6,49.8,30.07,SSE,161,1.0,4.0,39,0.00,,---,0.00,VWS V14.01,2013-06-19 22:27:00,
2013-06-19 18:32:00,76.7,50.6,30.07,ESE,104,0.0,0.0,40,0.00,,---,0.00,VWS V14.01,2013-06-19 22:32:00,
2013-06-19 18:37:00,76.8,49.3,30.07,West,271,0.0,4.0,38,0.00,,---,0.00,VWS V14.01,2013-06-19 22:37:00,
2013-06-19 18:42:00,76.9,51.4,30.07,SSW,201,5.0,7.0,41,0.00,,---,0.00,VWS V14.01,2013-06-19 22:42:00,
2013-06-19 18:47:00,76.9,50.1,30.07,West,271,2.0,5.0,39,0.00,,---,0.00,VWS V14.01,2013-06-19 22:47:00,
2013-06-19 18:52:00,76.8,49.3,30.07,North,5,1.0,2.0,38,0.00,,---,0.00,VWS V14.01,2013-06-19 22:52:00,
2013-06-19 18:57:00,76.8,51.3,30.07,NNW,337,0.0,0.0,41,0.00,,---,0.00,VWS V14.01,2013-06-19 22:57:00,
2013-06-19 19:02:00,76.9,50.1,30.07,NW,306,0.0,3.0,39,0.00,,---,0.00,VWS V14.01,2013-06-19 23:02:00,
2013-06-19 19:07:00,77.0,51.5,30.07,SW,220,2.0,3.0,41,0.00,,---,0.00,VWS V14.01,2013-06-19 23:07:00,
2013-06-19 19:12:00,76.9,51.4,30.07,ENE,61,0.0,4.0,41,0.00,,---,0.00,VWS V14.01,2013-06-19 23:12:00,
2013-06-19 19:17:00,76.8,49.3,30.07,ESE,115,0.0,4.0,38,0.00,,---,0.00,VWS V14.01,2013-06-19 23:17:00,
2013-06-19 19:22:00,76.8,50.0,30.07,North,9,0.0,4.0,39,0.00,,---,0.00,VWS V14.01,2013-06-19 23:22:00,
2013-06-19 19:27:00,76.8,50.0,30.08,West,273,3.0,5.0,39,0.00,,---,0.00,VWS V14.01,2013-06-19 23:27:00,
2013-06-19 19:32:00,76.7,51.2,30.08,West,268,0.0,4.0,41,0.00,,---,0.00,VWS V14.01,2013-06-19 23:32:00,
2013-06-19 19:37:00,76.5,51.7,30.08,SSW,202,0.0,1.0,42,0.00,,---,0.00,VWS V14.01,2013-06-19 23:37:00,
2013-06-19 19:42:00,76.5,50.4,30.08,SSW,202,0.0,1.0,40,0.00,,---,0.00,VWS V14.01,2013-06-19 23:42:00,
2013-06-19 19:47:00,76.5,51.7,30.08,SW,217,3.0,5.0,42,0.00,,---,0.00,VWS V14.01,2013-06-19 23:47:00,
2013-06-19 19:52:00,76.4,51.0,30.08,SW,219,2.0,5.0,41,0.00,,---,0.00,VWS V14.01,2013-06-19 23:52:00,
2013-06-19 19:57:00,76.2,50.1,30.08,SW,225,0.0,3.0,40,0.00,,---,0.00,VWS V14.01,2013-06-19 23:57:00,
2013-06-19 20:02:00,76.0,51.9,30.08,SSW,196,2.0,3.0,43,0.00,,---,0.00,VWS V14.01,2013-06-20 00:02:00,
2013-06-19 20:07:00,75.9,49.9,30.08,SSW,202,0.0,0.0,40,0.00,,---,0.00,VWS V14.01,2013-06-20 00:07:00,
2013-06-19 20:12:00,75.8,50.5,30.08,SSW,209,4.0,4.0,41,0.00,,---,0.00,VWS V14.01,2013-06-20 00:12:00,
2013-06-19 20:17:00,75.7,52.9,30.08,SSW,213,2.0,4.0,45,0.00,,---,0.00,VWS V14.01,2013-06-20 00:17:00,
2013-06-19 20:22:00,75.5,50.8,30.08,SSW,212,2.0,5.0,42,0.00,,---,0.00,VWS V14.01,2013-06-20 00:22:00,
2013-06-19 20:27:00,75.3,51.3,30.08,South,190,1.0,3.0,43,0.00,,---,0.00,VWS V14.01,2013-06-20 00:27:00,
2013-06-19 20:31:00,75.1,53.5,30.08,West,270,6.0,7.0,47,0.00,,---,0.00,VWS V14.01,2013-06-20 00:31:00,
2013-06-19 20:37:00,74.3,52.2,30.09,West,263,4.0,8.0,46,0.00,,---,0.00,VWS V14.01,2013-06-20 00:37:00,
2013-06-19 20:42:00,73.5,52.6,30.09,WSW,256,4.0,6.0,48,0.00,,---,0.00,VWS V14.01,2013-06-20 00:42:00,
2013-06-19 20:47:00,72.8,53.1,30.09,WNW,286,6.0,6.0,50,0.00,,---,0.00,VWS V14.01,2013-06-20 00:47:00,
2013-06-19 20:52:00,72.1,53.0,30.09,West,280,4.0,6.0,51,0.00,,---,0.00,VWS V14.01,2013-06-20 00:52:00,
2013-06-19 20:57:00,71.5,53.0,30.09,WNW,297,3.0,5.0,52,0.00,,---,0.00,VWS V14.01,2013-06-20 00:57:00,
2013-06-19 21:02:00,71.1,53.1,30.09,WNW,287,3.0,4.0,53,0.00,,---,0.00,VWS V14.01,2013-06-20 01:02:00,
2013-06-19 21:07:00,70.7,53.8,30.09,WNW,287,3.0,3.0,55,0.00,,---,0.00,VWS V14.01,2013-06-20 01:07:00,
2013-06-19 21:12:00,70.3,54.4,30.09,WNW,286,2.0,3.0,57,0.00,,---,0.00,VWS V14.01,2013-06-20 01:12:00,
2013-06-19 21:17:00,69.8,54.4,30.09,West,260,1.0,3.0,58,0.00,,---,0.00,VWS V14.01,2013-06-20 01:17:00,
2013-06-19 21:22:00,69.4,54.5,30.09,West,260,0.0,2.0,59,0.00,,---,0.00,VWS V14.01,2013-06-20 01:22:00,
2013-06-19 21:28:00,68.9,54.5,30.09,West,260,0.0,0.0,60,0.00,,---,0.00,VWS V14.01,2013-06-20 01:28:00,
2013-06-19 21:33:00,68.6,54.6,30.09,NNW,336,0.0,0.0,61,0.00,,---,0.00,VWS V14.01,2013-06-20 01:33:00,
2013-06-19 21:38:00,68.3,54.8,30.09,NNW,336,0.0,0.0,62,0.00,,---,0.00,VWS V14.01,2013-06-20 01:38:00,
2013-06-19 21:43:00,67.9,54.0,30.09,NNW,336,0.0,0.0,61,0.00,,---,0.00,VWS V14.01,2013-06-20 01:43:00,
2013-06-19 21:48:00,67.6,53.2,30.10,NNW,336,0.0,0.0,60,0.00,,---,0.00,VWS V14.01,2013-06-20 01:48:00,
2013-06-19 21:53:00,67.3,53.8,30.10,NNW,336,0.0,0.0,62,0.00,,---,0.00,VWS V14.01,2013-06-20 01:53:00,
2013-06-19 21:58:00,66.9,53.5,30.10,NNW,336,0.0,0.0,62,0.00,,---,0.00,VWS V14.01,2013-06-20 01:58:00,
2013-06-19 22:03:00,66.5,54.0,30.10,NNW,336,0.0,0.0,64,0.00,,---,0.00,VWS V14.01,2013-06-20 02:03:00,
2013-06-19 22:08:00,66.2,53.7,30.10,NNW,336,0.0,0.0,64,0.00,,---,0.00,VWS V14.01,2013-06-20 02:08:00,
2013-06-19 22:13:00,65.8,53.3,30.10,NNW,336,0.0,0.0,64,0.00,,---,0.00,VWS V14.01,2013-06-20 02:13:00,
2013-06-19 22:18:00,65.6,54.0,30.10,NNW,336,0.0,0.0,66,0.00,,---,0.00,VWS V14.01,2013-06-20 02:18:00,
2013-06-19 22:23:00,65.3,55.3,30.10,NNW,336,0.0,0.0,70,0.00,,---,0.00,VWS V14.01,2013-06-20 02:23:00,
2013-06-19 22:28:00,64.7,55.1,30.10,NNW,336,0.0,0.0,71,0.00,,---,0.00,VWS V14.01,2013-06-20 02:28:00,
2013-06-19 22:33:00,64.4,55.2,30.10,NNW,336,0.0,0.0,72,0.00,,---,0.00,VWS V14.01,2013-06-20 02:33:00,
2013-06-19 22:38:00,64.2,55.4,30.11,NNW,336,0.0,0.0,73,0.00,,---,0.00,VWS V14.01,2013-06-20 02:38:00,
2013-06-19 22:43:00,63.6,55.9,30.11,NNW,336,0.0,0.0,76,0.00,,---,0.00,VWS V14.01,2013-06-20 02:43:00,
2013-06-19 22:47:00,63.1,56.1,30.11,NNW,336,0.0,0.0,78,0.00,,---,0.00,VWS V14.01,2013-06-20 02:47:00,
2013-06-19 22:52:00,62.6,55.3,30.11,NNW,336,0.0,0.0,77,0.00,,---,0.00,VWS V14.01,2013-06-20 02:52:00,
2013-06-19 22:57:00,62.4,55.1,30.11,NNW,336,0.0,0.0,77,0.00,,---,0.00,VWS V14.01,2013-06-20 02:57:00,
2013-06-19 23:02:00,62.2,54.5,30.11,NNW,336,0.0,0.0,76,0.00,,---,0.00,VWS V14.01,2013-06-20 03:02:00,
2013-06-19 23:08:00,62.0,55.1,30.11,NNW,336,0.0,1.0,78,0.00,,---,0.00,VWS V14.01,2013-06-20 03:08:00,
2013-06-19 23:13:00,61.6,55.0,30.11,NNW,336,0.0,0.0,79,0.00,,---,0.00,VWS V14.01,2013-06-20 03:13:00,
2013-06-19 23:18:00,61.4,54.8,30.11,NNW,336,0.0,0.0,79,0.00,,---,0.00,VWS V14.01,2013-06-20 03:18:00,
2013-06-19 23:23:00,61.2,54.3,30.11,NNW,336,0.0,0.0,78,0.00,,---,0.00,VWS V14.01,2013-06-20 03:23:00,
2013-06-19 23:28:00,60.9,54.0,30.11,NNW,336,0.0,0.0,78,0.00,,---,0.00,VWS V14.01,2013-06-20 03:28:00,
2013-06-19 23:33:00,60.5,54.0,30.11,NNW,336,0.0,0.0,79,0.00,,---,0.00,VWS V14.01,2013-06-20 03:33:00,
2013-06-19 23:38:00,60.2,53.7,30.11,NNW,336,0.0,0.0,79,0.00,,---,0.00,VWS V14.01,2013-06-20 03:38:00,
2013-06-19 23:43:00,60.0,54.2,30.11,NNW,336,0.0,0.0,81,0.00,,---,0.00,VWS V14.01,2013-06-20 03:43:00,
2013-06-19 23:48:00,59.8,54.6,30.11,NNW,336,0.0,0.0,83,0.00,,---,0.00,VWS V14.01,2013-06-20 03:48:00,
2013-06-19 23:53:00,59.5,54.3,30.11,NNW,336,0.0,0.0,83,0.00,,---,0.00,VWS V14.01,2013-06-20 03:53:00,
2013-06-19 23:58:00,59.3,54.2,30.11,NNW,336,0.0,0.0,83,0.00,,---,0.00,VWS V14.01,2013-06-20 03:58:00,